Lid_Strength_Index
1 -0 -1 -2 -1 -1 -1 -1 -1 -2 -2 -2 -2 -2 -2 -2 -2 -2 -2 -2 -2 -2 -2 -2 -2 -2 -2 -2 -2 -2 -2 -2 -2 -2 -2 -1 -2 -2 -2 -1 -1 0 -2
0 -0 -1 -1 -2 -2 -1 -1 -1 -2 -2 -2 -2 -2 -2 -2 -2 -2 -2 -2 -2 -2 -2 -2 -2 -2 -2 -2 -1 -2 -2 -1 -1 -1 -2 -1 -1 -2 -2 -2 -1 -1 -2
0 -0 -0 -1 -2 -1 -1 -1 -2 -2 -2 -2 -2 -2 -2 -2 -2 -2 -2 -2 -2 -2 -2 -2 -2 -1 -1 -1 -1 -1 -2 -1 -1 -1 -1 2 1 -1 -2 -1 -1 -1 -1
-0 -0 -0 -1 -1 -1 -2 -2 -1 -2 -2 -2 -2 -2 -2 -2 -2 -2 -2 -2 -1 -1 -1 -1 -1 -1 -1 -1 -1 -1 -1 -1 -1 -1 1 2 2 -1 -2 -1 -1 -1 -1
-0 -0 -0 -1 -1 -1 -2 -2 -1 -2 -2 -2 -2 -2 -2 -2 -2 -2 -1 -1 -1 -1 -1 -1 -1 -1 -1 -1 -1 -1 -1 -1 -1 -0 1 1 2 -0 -1 -1 -1 -1 -1
0 -0 -0 -1 -1 -1 -1 -2 -1 -1 -2 -2 -2 -2 -2 -2 -2 -1 -1 -1 -1 -1 -1 -1 -1 -1 -1 -1 -1 -1 -1 -1 -1 1 2 1 2 -1 -2 -1 -1 -2 -2
0 0 -0 -1 -1 -1 -1 -1 -1 -1 -2 -2 -2 -2 -2 -1 -1 -1 -1 -1 -1 -1 -1 -1 -1 -1 -1 -1 -1 -1 -1 -1 1 2 2 2 2 -1 -2 -2 -2 -2 -2
0 0 -0 1 -0 -1 -1 -1 -2 -2 -2 -2 -2 -2 -2 -2 -1 -1 -1 -1 -1 -1 -1 -1 -1 -1 -1 -1 -1 -1 -1 -1 1 2 2 2 0 -1 -2 -2 -2 -2 -2
0 0 0 0 0 1 -0 -0 -1 -2 -2 -2 -2 -2 -2 -2 -2 -1 -1 -1 -1 -1 -1 -1 -1 -1 -1 -1 -1 -1 -1 -0 -0 1 0 0 -1 -1 -2 -2 -2 -1 -2
0 0 0 1 1 1 1 0 -0 -1 -2 -2 -2 -1 -1 -1 -1 -1 -1 -1 -1 -1 -1 -1 -1 -1 -1 -1 -1 -0 1 0 1 1 1 -0 -2 -2 -2 -1 -2 -2 -2
1 1 0 1 1 1 1 1 0 -0 -1 -1 -0 0 0 1 1 1 0 -1 -1 -1 -0 -1 -1 -1 -0 -0 0 0 1 1 1 1 0 -1 -2 -1 -1 -1 -1 -1 -1
2 2 1 1 1 1 0 2 2 1 1 1 1 1 1 1 1 0 2 2 1 1 0 -0 -1 -1 0 -0 1 0 1 1 2 2 1 -1 -1 -1 -1 0 -1 -0 0
2 1 1 2 1 1 1 1 2 2 2 1 1 1 1 1 2 2 2 2 3 2 1 -0 -0 0 1 1 2 3 2 2 3 3 1 -1 -1 -0 0 0 1 1 1
2 1 1 1 1 1 1 1 1 1 1 1 2 1 2 2 2 2 2 1 1 0 1 1 2 3 3 4 5 5 5 5 5 4 2 2 0 0 0 1 2 1 2
2 1 1 2 1 1 1 1 1 1 1 1 1 1 1 2 2 1 0 0 1 2 3 3 4 4 5 6 6 6 6 5 4 3 5 4 3 3 2 2 3 3 3
2 1 1 3 1 0 1 1 1 1 2 1 1 1 1 1 0 1 2 2 3 4 4 4 4 5 6 7 7 7 7 5 5 5 7 8 5 4 4 4 4 3 3
2 1 1 2 2 1 1 1 1 1 1 1 0 0 0 -0 2 2 3 4 5 5 5 5 5 7 9 9 9 8 6 7 7 9 10 10 10 7 6 5 4 3 2
2 1 1 0 1 1 1 1 2 1 0 2 3 2 2 3 3 4 5 6 7 7 6 7 6 9 10 10 9 8 8 8 9 11 11 11 11 11 9 5 4 4 4
2 1 1 1 2 3 2 1 2 2 3 4 4 4 4 5 5 6 7 8 8 8 8 7 8 10 10 9 8 9 9 10 11 12 13 13 12 12 11 7 7 7 7
2 2 1 2 2 2 1 3 4 4 5 6 6 6 6 6 7 8 9 9 9 10 10 9 9 10 11 10 8 10 11 11 12 14 15 13 13 13 11 11 12 13 10
2 2 2 3 3 1 2 4 4 6 7 8 8 8 7 8 9 9 9 10 11 11 11 10 10 11 12 12 10 10 11 12 13 14 15 14 14 12 13 13 14 15 15
2 2 2 2 3 1 2 4 5 7 9 9 9 9 8 9 10 10 11 11 11 12 12 12 11 12 12 12 13 13 14 13 13 15 15 14 15 13 14 14 15 15 15
4 3 3 3 2 2 4 7 8 9 9 10 10 11 11 10 10 11 12 11 12 12 13 13 13 13 13 13 13 14 16 16 15 13 16 16 15 14 14 15 15 15 15
4 3 3 3 2 3 5 7 7 7 9 9 11 11 12 11 12 12 12 12 12 13 13 13 13 14 14 15 14 14 15 15 17 17 15 16 15 14 15 15 16 15 15
4 3 3 2 2 4 5 5 6 9 10 11 11 12 12 12 12 12 13 13 13 14 14 15 15 15 15 16 16 15 15 16 16 17 18 17 16 15 15 15 15 15 15
6 5 3 4 4 4 5 6 8 11 12 12 12 13 14 14 14 14 13 14 14 14 14 14 15 16 16 17 17 17 17 17 18 18 19 18 18 16 14 15 15 16 15